Location: T�bingen+AIT
(48.5342°N, 9.0700°E)
Time: 02:54:34
(UTC+01:00)

Cosmos 1937 Rocket - Pass Details

Date: 14 September 2017
Orbit: 747 x 780 km, 74.0° (Epoch: 21 November)

Event Time Altitude Azimuth Distance (km) Brightness Sun altitude
Rises 21:50:16 0° 333° (NNW) 3,276 7.7 -21.4°
Reaches altitude 10° 21:52:42 10° 329° (NNW) 2,344 6.9 -21.7°
Maximum altitude 21:57:53 55° 254° (WSW) 936 4.1 -22.4°
Enters shadow 22:00:29 28° 189° (S) 1,423 4.6 -22.8°
